TimeAKDT,TemperatureF,Dew PointF,Humidity,Sea Level PressureIn,VisibilityMPH,Wind Direction,Wind SpeedMPH,Gust SpeedMPH,PrecipitationIn,Events,Conditions,WindDirDegrees,DateUTC
12:53 AM,55.0,54.0,96,30.00,10.0,Calm,Calm,-,N/A,,Mostly Cloudy,0,2013-08-06 08:53:00
1:53 AM,54.0,53.1,97,30.00,10.0,Calm,Calm,-,N/A,,Clear,0,2013-08-06 09:53:00
2:53 AM,54.0,53.1,97,30.00,10.0,Calm,Calm,-,N/A,,Clear,0,2013-08-06 10:53:00
3:53 AM,54.0,53.1,97,29.99,10.0,Calm,Calm,-,N/A,,Partly Cloudy,0,2013-08-06 11:53:00
4:53 AM,53.1,52.0,96,29.99,10.0,North,3.5,-,N/A,,Partly Cloudy,360,2013-08-06 12:53:00
5:53 AM,53.1,51.1,93,29.98,10.0,NNW,4.6,-,N/A,,Clear,330,2013-08-06 13:53:00
6:53 AM,53.1,51.1,93,29.98,10.0,NNE,3.5,-,N/A,,Clear,30,2013-08-06 14:53:00
7:53 AM,54.0,52.0,93,29.98,10.0,Calm,Calm,-,N/A,,Clear,0,2013-08-06 15:53:00
8:53 AM,55.0,53.1,93,29.98,10.0,NNE,3.5,-,N/A,,Mostly Cloudy,30,2013-08-06 16:53:00
9:53 AM,60.1,55.0,83,29.97,10.0,Variable,3.5,-,N/A,,Mostly Cloudy,0,2013-08-06 17:53:00
10:53 AM,64.0,54.0,70,29.96,10.0,Calm,Calm,-,N/A,,Clear,0,2013-08-06 18:53:00
11:53 AM,64.9,54.0,68,29.96,10.0,WNW,3.5,-,N/A,,Mostly Cloudy,300,2013-08-06 19:53:00
12:53 PM,68.0,53.1,59,29.95,10.0,West,3.5,-,N/A,,Mostly Cloudy,280,2013-08-06 20:53:00
1:53 PM,71.1,54.0,55,29.94,10.0,Calm,Calm,-,N/A,,Mostly Cloudy,0,2013-08-06 21:53:00
2:53 PM,72.0,45.0,38,29.93,10.0,SSW,3.5,-,N/A,,Scattered Clouds,210,2013-08-06 22:53:00
3:53 PM,71.1,48.9,45,29.93,10.0,SSW,6.9,-,N/A,,Partly Cloudy,200,2013-08-06 23:53:00
4:53 PM,69.1,48.0,47,29.93,10.0,SSW,9.2,-,N/A,,Partly Cloudy,200,2013-08-07 00:53:00
5:53 PM,68.0,48.9,50,29.93,10.0,SSW,6.9,-,N/A,,Mostly Cloudy,210,2013-08-07 01:53:00
6:53 PM,66.9,51.1,57,29.93,10.0,SSW,5.8,-,N/A,,Mostly Cloudy,200,2013-08-07 02:53:00
7:53 PM,64.0,51.1,63,29.93,10.0,SSW,3.5,-,N/A,,Overcast,210,2013-08-07 03:53:00
8:53 PM,64.0,51.1,63,29.93,10.0,Calm,Calm,-,N/A,,Overcast,0,2013-08-07 04:53:00
9:53 PM,63.0,51.1,65,29.94,10.0,Calm,Calm,-,N/A,,Mostly Cloudy,0,2013-08-07 05:53:00
10:53 PM,59.0,54.0,83,29.94,10.0,Calm,Calm,-,N/A,,Partly Cloudy,0,2013-08-07 06:53:00
11:53 PM,57.0,54.0,89,29.94,10.0,Calm,Calm,-,N/A,,Clear,0,2013-08-07 07:53:00